Year,Month,Day,Hour,Minute,Value (Times are PST for temperature in C)
2016,08,14,09,42,19.20
2016,08,14,09,43,19.30
2016,08,14,09,44,19.40
2016,08,14,09,45,19.50
2016,08,14,09,46,19.50
2016,08,14,09,47,19.50
2016,08,14,09,48,19.60
2016,08,14,09,49,19.60
2016,08,14,09,50,19.60
2016,08,14,09,51,19.60
2016,08,14,09,52,19.50
2016,08,14,09,53,19.50
2016,08,14,09,54,19.40
2016,08,14,09,55,19.40
2016,08,14,09,56,19.40
2016,08,14,09,57,19.30
2016,08,14,09,58,19.10
2016,08,14,09,59,19.10
2016,08,14,10,00,18.90
2016,08,14,10,01,18.90
2016,08,14,10,02,18.90
2016,08,14,10,03,18.80
2016,08,14,10,04,18.60
2016,08,14,10,05,18.50
2016,08,14,10,06,18.40
2016,08,14,10,07,18.40
2016,08,14,10,08,18.40
2016,08,14,10,09,18.40
2016,08,14,10,10,18.40
2016,08,14,10,11,18.50
2016,08,14,10,12,18.60
2016,08,14,10,13,18.70
2016,08,14,10,14,18.80
2016,08,14,10,15,18.90
2016,08,14,10,16,18.90
2016,08,14,10,17,18.90
2016,08,14,10,18,18.90
2016,08,14,10,19,18.90
2016,08,14,10,20,19.10
2016,08,14,10,21,19.10
2016,08,14,10,22,19.10
2016,08,14,10,23,19.20
2016,08,14,10,24,19.30
2016,08,14,10,25,19.30
2016,08,14,10,26,19.30
2016,08,14,10,27,19.30
2016,08,14,10,28,19.40
2016,08,14,10,29,19.40
2016,08,14,10,30,19.40
2016,08,14,10,31,19.40
2016,08,14,10,32,19.40
2016,08,14,10,33,19.40
2016,08,14,10,34,19.40
2016,08,14,10,35,19.30
2016,08,14,10,36,19.40
2016,08,14,10,37,19.40
2016,08,14,10,38,19.50
2016,08,14,10,39,19.50
2016,08,14,10,40,19.60
2016,08,14,10,41,19.70
2016,08,14,10,42,19.70
2016,08,14,10,43,19.60
2016,08,14,10,44,19.50
2016,08,14,10,45,19.40
2016,08,14,10,46,19.40
2016,08,14,10,47,19.50
2016,08,14,10,48,19.40
2016,08,14,10,49,19.50
2016,08,14,10,50,19.50
2016,08,14,10,51,19.50
2016,08,14,10,52,19.50
2016,08,14,10,53,19.50
2016,08,14,10,54,19.50
2016,08,14,10,55,19.60
2016,08,14,10,56,19.60
2016,08,14,10,57,19.60
2016,08,14,10,58,19.60
2016,08,14,10,59,19.60
2016,08,14,11,00,19.60
2016,08,14,11,01,19.60
2016,08,14,11,02,19.60
2016,08,14,11,03,19.70
2016,08,14,11,04,19.70
2016,08,14,11,05,19.70
2016,08,14,11,06,19.70
2016,08,14,11,07,19.70
2016,08,14,11,08,19.70
2016,08,14,11,09,19.70
2016,08,14,11,10,19.70
2016,08,14,11,11,19.70
2016,08,14,11,12,19.70
2016,08,14,11,13,19.60
2016,08,14,11,14,19.60
2016,08,14,11,15,19.60
2016,08,14,11,16,19.70
2016,08,14,11,17,19.70
2016,08,14,11,18,19.80
2016,08,14,11,19,19.80
2016,08,14,11,20,19.90
2016,08,14,11,21,19.90
2016,08,14,11,22,20.00
2016,08,14,11,23,20.10
2016,08,14,11,24,20.30
2016,08,14,11,25,20.40
2016,08,14,11,26,20.50
2016,08,14,11,27,20.50
2016,08,14,11,28,20.60
2016,08,14,11,29,20.70
2016,08,14,11,30,20.60
2016,08,14,11,31,20.60
2016,08,14,11,32,20.50
2016,08,14,11,33,20.50
2016,08,14,11,34,20.50
2016,08,14,11,35,20.50
2016,08,14,11,36,20.40
2016,08,14,11,37,20.30
2016,08,14,11,38,20.30
2016,08,14,11,39,20.40
2016,08,14,11,40,20.40
2016,08,14,11,41,20.40
2016,08,14,11,42,20.40
2016,08,14,11,43,20.40
2016,08,14,11,44,20.40
2016,08,14,11,45,20.50
2016,08,14,11,46,20.50
2016,08,14,11,47,20.60
2016,08,14,11,48,20.70
2016,08,14,11,49,20.60
2016,08,14,11,50,20.50
2016,08,14,11,51,20.50
2016,08,14,11,52,20.40
2016,08,14,11,53,20.40
2016,08,14,11,54,20.50
2016,08,14,11,55,20.50
2016,08,14,11,56,20.60
2016,08,14,11,57,20.70
2016,08,14,11,58,20.80
2016,08,14,11,59,20.70
2016,08,14,12,00,20.70
2016,08,14,12,01,20.80
2016,08,14,12,02,20.90
2016,08,14,12,03,20.90
2016,08,14,12,04,20.80
2016,08,14,12,05,20.80
2016,08,14,12,06,20.80
2016,08,14,12,07,20.70
2016,08,14,12,08,20.70
2016,08,14,12,09,20.60
2016,08,14,12,10,20.50
2016,08,14,12,11,20.40
2016,08,14,12,12,20.40
2016,08,14,12,13,20.40
2016,08,14,12,14,20.40
2016,08,14,12,15,20.50
2016,08,14,12,16,20.60
2016,08,14,12,17,20.70
2016,08,14,12,18,20.80
2016,08,14,12,19,21.00
2016,08,14,12,20,21.10
2016,08,14,12,21,21.20
2016,08,14,12,22,21.40
2016,08,14,12,23,21.60
2016,08,14,12,24,21.60
2016,08,14,12,25,21.60
2016,08,14,12,26,21.60
2016,08,14,12,27,21.50
2016,08,14,12,28,21.30
2016,08,14,12,29,21.20
2016,08,14,12,30,21.20
2016,08,14,12,31,21.20
2016,08,14,12,32,21.10
2016,08,14,12,33,21.10
2016,08,14,12,34,21.10
2016,08,14,12,35,21.10
2016,08,14,12,36,21.20
2016,08,14,12,37,21.10
2016,08,14,12,38,21.00
2016,08,14,12,39,20.90
2016,08,14,12,40,20.80
2016,08,14,12,41,20.80
2016,08,14,12,42,20.80
2016,08,14,12,43,20.90
2016,08,14,12,44,20.80
2016,08,14,12,45,20.80
2016,08,14,12,46,20.80
2016,08,14,12,47,20.80
2016,08,14,12,48,20.70
2016,08,14,12,49,20.60
2016,08,14,12,50,20.70
2016,08,14,12,51,20.80
2016,08,14,12,52,20.90
2016,08,14,12,53,21.00
2016,08,14,12,54,21.20
2016,08,14,12,55,21.30
2016,08,14,12,56,21.30
2016,08,14,12,57,21.30
2016,08,14,12,58,21.30
2016,08,14,12,59,21.20
2016,08,14,13,00,21.10
2016,08,14,13,01,21.10
2016,08,14,13,02,21.20
2016,08,14,13,03,21.30
2016,08,14,13,04,21.30
2016,08,14,13,05,21.30
2016,08,14,13,06,21.40
2016,08,14,13,07,21.40
2016,08,14,13,08,21.30
2016,08,14,13,09,21.20
2016,08,14,13,10,21.20
2016,08,14,13,11,21.00
2016,08,14,13,12,21.00
2016,08,14,13,13,21.00
2016,08,14,13,14,21.10
2016,08,14,13,15,21.20
2016,08,14,13,16,21.30
2016,08,14,13,17,21.40
2016,08,14,13,18,21.50
2016,08,14,13,19,21.60
2016,08,14,13,20,21.70
2016,08,14,13,21,21.70
2016,08,14,13,22,21.70
2016,08,14,13,23,21.70
2016,08,14,13,24,21.70
2016,08,14,13,25,21.80
2016,08,14,13,26,21.80
2016,08,14,13,27,21.80
2016,08,14,13,28,21.80
2016,08,14,13,29,21.90
2016,08,14,13,30,22.00
2016,08,14,13,31,22.10
2016,08,14,13,32,22.10
2016,08,14,13,33,22.10
2016,08,14,13,34,22.00
2016,08,14,13,35,21.90
2016,08,14,13,36,21.80
2016,08,14,13,37,21.90
2016,08,14,13,38,22.00
2016,08,14,13,39,21.90
2016,08,14,13,40,21.80
2016,08,14,13,41,21.70
2016,08,14,13,42,21.70
2016,08,14,13,43,21.60
2016,08,14,13,44,21.70
2016,08,14,13,45,21.80
2016,08,14,13,46,21.80
2016,08,14,13,47,21.80
2016,08,14,13,48,21.70
2016,08,14,13,49,21.70
2016,08,14,13,50,21.70
2016,08,14,13,51,21.70
2016,08,14,13,52,21.70
2016,08,14,13,53,21.70
2016,08,14,13,54,21.80
2016,08,14,13,55,21.90
2016,08,14,13,56,21.90
2016,08,14,13,57,22.00
2016,08,14,13,58,22.00
2016,08,14,13,59,22.20
2016,08,14,14,00,22.30
2016,08,14,14,01,22.40
2016,08,14,14,02,22.60
2016,08,14,14,03,22.70
2016,08,14,14,04,22.70
2016,08,14,14,05,22.70
2016,08,14,14,06,22.70
2016,08,14,14,07,22.70
2016,08,14,14,08,22.60
2016,08,14,14,09,22.50
2016,08,14,14,10,22.30
2016,08,14,14,11,22.30
2016,08,14,14,12,22.30
2016,08,14,14,13,22.20
2016,08,14,14,14,22.20
2016,08,14,14,15,22.20
2016,08,14,14,16,22.20
2016,08,14,14,17,22.20
2016,08,14,14,18,22.20
2016,08,14,14,19,22.10
2016,08,14,14,20,22.10
2016,08,14,14,21,22.10
2016,08,14,14,22,22.10
2016,08,14,14,23,22.00
2016,08,14,14,24,22.00
2016,08,14,14,25,22.00
2016,08,14,14,26,21.90
2016,08,14,14,27,21.90
2016,08,14,14,28,21.90
2016,08,14,14,29,21.90
2016,08,14,14,30,21.90
2016,08,14,14,31,22.00
2016,08,14,14,32,22.00
2016,08,14,14,33,22.10
2016,08,14,14,34,22.20
2016,08,14,14,35,22.40
2016,08,14,14,36,22.60
2016,08,14,14,37,22.70
2016,08,14,14,38,22.80
2016,08,14,14,39,22.80
2016,08,14,14,40,22.80
2016,08,14,14,41,22.80
2016,08,14,14,42,22.90
2016,08,14,14,43,22.90
2016,08,14,14,44,22.90
2016,08,14,14,45,22.90
2016,08,14,14,46,22.90
2016,08,14,14,47,22.90
2016,08,14,14,48,22.90
2016,08,14,14,49,22.80
2016,08,14,14,50,22.70
2016,08,14,14,51,22.60
2016,08,14,14,52,22.50
2016,08,14,14,53,22.50
2016,08,14,14,54,22.50
2016,08,14,14,55,22.60
2016,08,14,14,56,22.70
2016,08,14,14,57,22.80
2016,08,14,14,58,22.80
2016,08,14,14,59,22.80
2016,08,14,15,00,22.70
2016,08,14,15,01,22.70
2016,08,14,15,02,22.60
2016,08,14,15,03,22.60
2016,08,14,15,04,22.60
2016,08,14,15,05,22.60
2016,08,14,15,06,22.60
2016,08,14,15,07,22.60
2016,08,14,15,08,22.60
2016,08,14,15,09,22.60
2016,08,14,15,10,22.60
2016,08,14,15,11,22.50
2016,08,14,15,12,22.50
2016,08,14,15,13,22.30
2016,08,14,15,14,22.20
2016,08,14,15,15,22.20
2016,08,14,15,16,22.20
2016,08,14,15,17,22.10
2016,08,14,15,18,22.10
2016,08,14,15,19,22.10
2016,08,14,15,20,22.10
2016,08,14,15,21,22.00
2016,08,14,15,22,22.00
2016,08,14,15,23,22.00
2016,08,14,15,24,22.00
2016,08,14,15,25,22.00
2016,08,14,15,26,21.90
2016,08,14,15,27,21.70
2016,08,14,15,28,21.60
2016,08,14,15,29,21.60
2016,08,14,15,30,21.60
2016,08,14,15,31,21.60
2016,08,14,15,32,21.70
2016,08,14,15,33,21.70
2016,08,14,15,34,21.60
2016,08,14,15,35,21.60
2016,08,14,15,36,21.60
2016,08,14,15,37,21.60
2016,08,14,15,38,21.60
2016,08,14,15,39,21.60
2016,08,14,15,40,21.60
2016,08,14,15,41,21.70
2016,08,14,15,42,21.70
2016,08,14,15,43,21.70
2016,08,14,15,44,21.60
2016,08,14,15,45,21.30
2016,08,14,15,46,21.10
2016,08,14,15,47,20.90
2016,08,14,15,48,20.70
2016,08,14,15,49,20.60
2016,08,14,15,50,20.50
2016,08,14,15,51,20.40
2016,08,14,15,52,20.30
2016,08,14,15,53,20.20
2016,08,14,15,54,20.20
2016,08,14,15,55,20.20
2016,08,14,15,56,20.20
2016,08,14,15,57,20.20
2016,08,14,15,58,20.10
2016,08,14,15,59,19.90
2016,08,14,16,00,19.80
2016,08,14,16,01,19.70
2016,08,14,16,02,19.50
2016,08,14,16,03,19.50
2016,08,14,16,04,19.50
2016,08,14,16,05,19.50
2016,08,14,16,06,19.50
2016,08,14,16,07,19.30
2016,08,14,16,08,19.20
2016,08,14,16,09,19.10
2016,08,14,16,10,19.10
2016,08,14,16,11,19.10
2016,08,14,16,12,19.20
2016,08,14,16,13,19.30
2016,08,14,16,14,19.30
2016,08,14,16,15,19.30
2016,08,14,16,16,19.30
2016,08,14,16,17,19.30
2016,08,14,16,18,19.30
2016,08,14,16,19,19.20
2016,08,14,16,20,19.10
2016,08,14,16,21,19.10
2016,08,14,16,22,19.00
2016,08,14,16,23,18.90
2016,08,14,16,24,18.80
2016,08,14,16,25,18.80
2016,08,14,16,26,18.80
2016,08,14,16,27,18.80
2016,08,14,16,28,18.70
2016,08,14,16,29,18.50
2016,08,14,16,30,18.30
2016,08,14,16,31,18.20
2016,08,14,16,32,18.20
2016,08,14,16,33,18.10
2016,08,14,16,34,18.10
2016,08,14,16,35,18.10
2016,08,14,16,36,18.10
2016,08,14,16,37,18.20
2016,08,14,16,38,18.10
2016,08,14,16,39,18.00
2016,08,14,16,40,17.90
2016,08,14,16,41,17.80
2016,08,14,16,42,17.70
2016,08,14,16,43,17.60
2016,08,14,16,44,17.60
2016,08,14,16,45,17.60
2016,08,14,16,46,17.60
2016,08,14,16,47,17.70
2016,08,14,16,48,17.70
2016,08,14,16,49,17.70
2016,08,14,16,50,17.70
2016,08,14,16,51,17.70
2016,08,14,16,52,17.70
2016,08,14,16,53,17.70
2016,08,14,16,54,17.60
2016,08,14,16,55,17.50
2016,08,14,16,56,17.40
2016,08,14,16,57,17.30
2016,08,14,16,58,17.30
2016,08,14,16,59,17.20
2016,08,14,17,00,17.10
2016,08,14,17,01,17.00
2016,08,14,17,02,17.00
2016,08,14,17,03,17.00
2016,08,14,17,04,17.00
2016,08,14,17,05,17.00
2016,08,14,17,06,17.00
2016,08,14,17,07,16.90
2016,08,14,17,08,16.80
2016,08,14,17,09,16.80
2016,08,14,17,10,16.70
2016,08,14,17,11,16.80
2016,08,14,17,12,16.90
2016,08,14,17,13,16.90
2016,08,14,17,14,16.90
2016,08,14,17,15,16.90
2016,08,14,17,16,16.90
2016,08,14,17,17,16.80
2016,08,14,17,18,16.80
2016,08,14,17,19,16.90
2016,08,14,17,20,16.90
2016,08,14,17,21,17.00
2016,08,14,17,22,16.90
2016,08,14,17,23,16.80
2016,08,14,17,24,16.80
2016,08,14,17,25,16.80
2016,08,14,17,26,16.80
2016,08,14,17,27,16.80
2016,08,14,17,28,16.90
2016,08,14,17,29,16.90
2016,08,14,17,30,16.90
2016,08,14,17,31,16.90
2016,08,14,17,32,16.90
2016,08,14,17,33,16.90
2016,08,14,17,34,17.00
2016,08,14,17,35,17.00
2016,08,14,17,36,17.10
2016,08,14,17,37,17.10
2016,08,14,17,38,17.20
2016,08,14,17,39,17.30
2016,08,14,17,40,17.30
2016,08,14,17,41,17.40
2016,08,14,17,42,17.50
2016,08,14,17,43,17.60
2016,08,14,17,44,17.80
2016,08,14,17,45,17.90
2016,08,14,17,46,18.00
2016,08,14,17,47,18.20
2016,08,14,17,48,18.30
2016,08,14,17,49,18.50
2016,08,14,17,50,18.60
2016,08,14,17,51,18.70
2016,08,14,17,52,18.80
2016,08,14,17,53,19.00
2016,08,14,17,54,19.10
2016,08,14,17,55,19.30
2016,08,14,17,56,19.40
2016,08,14,17,57,19.50
2016,08,14,17,58,19.60
2016,08,14,17,59,19.80
2016,08,14,18,00,20.00
2016,08,14,18,01,20.10
2016,08,14,18,02,20.20
2016,08,14,18,03,20.30
2016,08,14,18,04,20.40
2016,08,14,18,05,20.50
2016,08,14,18,06,20.60
2016,08,14,18,07,20.70
2016,08,14,18,08,20.80
2016,08,14,18,09,20.80
2016,08,14,18,10,20.90
2016,08,14,18,11,21.00
2016,08,14,18,12,21.10
2016,08,14,18,13,21.20
2016,08,14,18,14,21.30
2016,08,14,18,15,21.30
2016,08,14,18,16,21.30
2016,08,14,18,17,21.40
2016,08,14,18,18,21.40
2016,08,14,18,19,21.50
2016,08,14,18,20,21.60
2016,08,14,18,21,21.60
2016,08,14,18,22,21.60
2016,08,14,18,23,21.60
2016,08,14,18,24,21.60
2016,08,14,18,25,21.60
2016,08,14,18,26,21.60
2016,08,14,18,27,21.50
2016,08,14,18,28,21.40
2016,08,14,18,29,21.30
2016,08,14,18,30,21.30
2016,08,14,18,31,21.30
2016,08,14,18,32,21.30
2016,08,14,18,33,21.30
2016,08,14,18,34,21.30
2016,08,14,18,35,21.30
2016,08,14,18,36,21.30
2016,08,14,18,37,21.20
2016,08,14,18,38,21.20
2016,08,14,18,39,21.10
2016,08,14,18,40,21.10
2016,08,14,18,41,21.10
2016,08,14,18,42,21.10
2016,08,14,18,43,21.00
2016,08,14,18,44,21.00
2016,08,14,18,45,21.00
2016,08,14,18,46,21.00
2016,08,14,18,47,21.00
2016,08,14,18,48,21.00
2016,08,14,18,49,21.00
2016,08,14,18,50,21.00
2016,08,14,18,51,21.00
2016,08,14,18,52,20.90
2016,08,14,18,53,20.90
2016,08,14,18,54,20.80
2016,08,14,18,55,20.80
2016,08,14,18,56,20.80
2016,08,14,18,57,20.70
2016,08,14,18,58,20.70
2016,08,14,18,59,20.60
2016,08,14,19,00,20.60
2016,08,14,19,01,20.60
2016,08,14,19,02,20.60
2016,08,14,19,03,20.50
2016,08,14,19,04,20.50
2016,08,14,19,05,20.40
2016,08,14,19,06,20.40
2016,08,14,19,07,20.40
2016,08,14,19,08,20.40
2016,08,14,19,09,20.40
2016,08,14,19,10,20.40
2016,08,14,19,11,20.40
2016,08,14,19,12,20.40
2016,08,14,19,13,20.40
2016,08,14,19,14,20.30
2016,08,14,19,15,20.30
2016,08,14,19,16,20.30
2016,08,14,19,17,20.20
2016,08,14,19,18,20.20
2016,08,14,19,19,20.10
2016,08,14,19,20,20.00
2016,08,14,19,21,19.90
2016,08,14,19,22,19.90
2016,08,14,19,23,19.90
2016,08,14,19,24,19.90
2016,08,14,19,25,19.90
2016,08,14,19,26,19.80
2016,08,14,19,27,19.80
2016,08,14,19,28,19.80
2016,08,14,19,29,19.70
2016,08,14,19,30,19.70
2016,08,14,19,31,19.60
2016,08,14,19,32,19.60
2016,08,14,19,33,19.60
2016,08,14,19,34,19.60
2016,08,14,19,35,19.60
2016,08,14,19,36,19.60
2016,08,14,19,37,19.60
2016,08,14,19,38,19.60
2016,08,14,19,39,19.60
2016,08,14,19,40,19.60
2016,08,14,19,41,19.50
2016,08,14,19,42,19.50
2016,08,14,19,43,19.50
2016,08,14,19,44,19.40
2016,08,14,19,45,19.40
2016,08,14,19,46,19.40
2016,08,14,19,47,19.40
2016,08,14,19,48,19.40
2016,08,14,19,49,19.30
2016,08,14,19,50,19.30
2016,08,14,19,51,19.20
2016,08,14,19,52,19.20
2016,08,14,19,53,19.10
2016,08,14,19,54,19.10
2016,08,14,19,55,19.10
2016,08,14,19,56,19.00
2016,08,14,19,57,18.90
2016,08,14,19,58,18.90
2016,08,14,19,59,18.70
2016,08,14,20,00,18.60
2016,08,14,20,01,18.60
2016,08,14,20,02,18.50
2016,08,14,20,03,18.40
2016,08,14,20,04,18.30
2016,08,14,20,05,18.20
2016,08,14,20,06,18.20
2016,08,14,20,07,18.20
2016,08,14,20,08,18.20
2016,08,14,20,09,18.10
2016,08,14,20,10,18.10
2016,08,14,20,11,18.00
2016,08,14,20,12,17.90
2016,08,14,20,13,17.90
2016,08,14,20,14,17.90
2016,08,14,20,15,17.90
2016,08,14,20,16,17.90
2016,08,14,20,17,17.90
2016,08,14,20,18,17.90
2016,08,14,20,19,17.90
2016,08,14,20,20,17.90
2016,08,14,20,21,17.90
2016,08,14,20,22,17.90
2016,08,14,20,23,17.90
2016,08,14,20,24,17.90
2016,08,14,20,25,17.90
